Time,TemperatureF,DewpointF,PressureIn,WindDirection,WindDirectionDegrees,WindSpeedMPH,WindSpeedGustMPH,Humidity,HourlyPrecipIn,Conditions,Clouds,dailyrainin,SolarRadiationWatts/m^2,SoftwareType,DateUTC
2013-11-16 00:02:00,45.0,40.0,-100.00,South,174,6.0,13.0,83,0.00,,,0.00,0.000000,,2013-11-16 06:02:00,
2013-11-16 00:42:00,46.0,42.0,-100.00,South,180,7.0,20.0,85,0.00,,,0.00,0.000000,,2013-11-16 06:42:00,
2013-11-16 00:52:00,46.0,42.0,-100.00,South,180,7.0,20.0,85,0.00,,,0.00,0.000000,,2013-11-16 06:52:00,
2013-11-16 01:01:00,46.0,42.0,-100.00,South,180,7.0,20.0,85,0.00,,,0.00,0.000000,,2013-11-16 07:01:00,
2013-11-16 01:42:00,46.0,43.0,-100.00,South,188,6.0,15.0,90,0.00,,,0.00,0.000000,,2013-11-16 07:42:00,
2013-11-16 01:52:00,46.0,43.0,-100.00,South,188,6.0,15.0,90,0.00,,,0.00,0.000000,,2013-11-16 07:52:00,
2013-11-16 02:01:00,46.0,43.0,-100.00,South,188,6.0,15.0,90,0.00,,,0.00,0.000000,,2013-11-16 08:01:00,
2013-11-16 02:42:00,46.0,44.0,-100.00,South,177,7.0,15.0,94,0.00,,,0.00,0.000000,,2013-11-16 08:42:00,
2013-11-16 02:52:00,46.0,44.0,-100.00,South,177,7.0,15.0,94,0.00,,,0.00,0.000000,,2013-11-16 08:52:00,
2013-11-16 03:02:00,46.0,44.0,-100.00,South,177,7.0,15.0,94,0.00,,,0.00,0.000000,,2013-11-16 09:02:00,
2013-11-16 03:43:00,48.0,46.0,-100.00,South,180,8.0,18.0,94,0.00,,,0.00,0.000000,,2013-11-16 09:43:00,
2013-11-16 03:53:00,48.0,46.0,-100.00,South,180,8.0,18.0,94,0.00,,,0.00,0.000000,,2013-11-16 09:53:00,
2013-11-16 04:03:00,48.0,46.0,-100.00,South,180,8.0,18.0,94,0.00,,,0.00,0.000000,,2013-11-16 10:03:00,
2013-11-16 04:43:00,49.0,48.0,-100.00,SSE,167,7.0,17.0,96,0.00,,,0.00,0.000000,,2013-11-16 10:43:00,
2013-11-16 04:52:00,49.0,48.0,-100.00,SSE,167,7.0,17.0,96,0.00,,,0.00,0.000000,,2013-11-16 10:52:00,
2013-11-16 05:02:00,49.0,48.0,-100.00,SSE,167,7.0,17.0,96,0.00,,,0.00,0.000000,,2013-11-16 11:02:00,
2013-11-16 05:42:00,49.0,48.0,-100.00,South,178,8.0,19.0,97,0.00,,,0.00,0.000000,,2013-11-16 11:42:00,
2013-11-16 05:53:00,49.0,48.0,-100.00,South,178,8.0,19.0,97,0.00,,,0.00,0.000000,,2013-11-16 11:53:00,
2013-11-16 06:02:00,49.0,48.0,-100.00,South,178,8.0,19.0,97,0.00,,,0.00,0.000000,,2013-11-16 12:02:00,
2013-11-16 06:42:00,51.0,50.0,-100.00,South,184,8.0,19.0,97,0.00,,,0.00,0.000000,,2013-11-16 12:42:00,
2013-11-16 06:52:00,51.0,50.0,-100.00,South,184,8.0,19.0,97,0.00,,,0.00,0.000000,,2013-11-16 12:52:00,
2013-11-16 07:01:00,51.0,50.0,-100.00,South,184,8.0,19.0,97,0.00,,,0.00,0.000000,,2013-11-16 13:01:00,
2013-11-16 07:42:00,52.0,52.0,-100.00,South,178,9.0,21.0,100,0.00,,,0.00,0.000000,,2013-11-16 13:42:00,
2013-11-16 07:52:00,52.0,52.0,-100.00,South,178,9.0,21.0,100,0.00,,,0.00,0.000000,,2013-11-16 13:52:00,
2013-11-16 08:02:00,52.0,52.0,-100.00,South,178,9.0,21.0,100,0.00,,,0.00,0.000000,,2013-11-16 14:02:00,
2013-11-16 08:42:00,54.0,54.0,-100.00,South,181,9.0,19.0,100,0.00,,,0.00,7.000000,,2013-11-16 14:42:00,
2013-11-16 08:52:00,54.0,54.0,-100.00,South,181,9.0,19.0,100,0.00,,,0.00,7.000000,,2013-11-16 14:52:00,
2013-11-16 09:02:00,54.0,54.0,-100.00,South,181,9.0,19.0,100,0.00,,,0.00,7.000000,,2013-11-16 15:02:00,
2013-11-16 09:43:00,57.0,54.0,-100.00,South,185,11.0,24.0,91,0.00,,,0.00,55.000000,,2013-11-16 15:43:00,
2013-11-16 09:53:00,57.0,54.0,-100.00,South,185,11.0,24.0,91,0.00,,,0.00,55.000000,,2013-11-16 15:53:00,
2013-11-16 10:03:00,57.0,54.0,-100.00,South,185,11.0,24.0,91,0.00,,,0.00,55.000000,,2013-11-16 16:03:00,
2013-11-16 10:43:00,61.0,56.0,-100.00,SSW,193,12.0,24.0,84,0.00,,,0.00,56.000000,,2013-11-16 16:43:00,
2013-11-16 10:53:00,61.0,56.0,-100.00,SSW,193,12.0,24.0,84,0.00,,,0.00,56.000000,,2013-11-16 16:53:00,
2013-11-16 11:03:00,61.0,56.0,-100.00,SSW,193,12.0,24.0,84,0.00,,,0.00,56.000000,,2013-11-16 17:03:00,
2013-11-16 11:43:00,63.0,55.0,-100.00,SSW,197,14.0,30.0,75,0.00,,,0.00,104.000000,,2013-11-16 17:43:00,
2013-11-16 11:52:00,63.0,55.0,-100.00,SSW,197,14.0,30.0,75,0.00,,,0.00,104.000000,,2013-11-16 17:52:00,
2013-11-16 12:02:00,63.0,55.0,-100.00,SSW,197,14.0,30.0,75,0.00,,,0.00,104.000000,,2013-11-16 18:02:00,
2013-11-16 12:42:00,66.0,56.0,-100.00,SSW,200,13.0,28.0,71,0.00,,,0.00,133.000000,,2013-11-16 18:42:00,
2013-11-16 12:52:00,66.0,56.0,-100.00,SSW,200,13.0,28.0,71,0.00,,,0.00,133.000000,,2013-11-16 18:52:00,
2013-11-16 13:02:00,66.0,56.0,-100.00,SSW,200,13.0,28.0,71,0.00,,,0.00,133.000000,,2013-11-16 19:02:00,
2013-11-16 13:42:00,66.0,56.0,-100.00,SSW,200,12.0,30.0,71,0.00,,,0.00,102.000000,,2013-11-16 19:42:00,
2013-11-16 13:53:00,66.0,56.0,-100.00,SSW,200,12.0,30.0,71,0.00,,,0.00,102.000000,,2013-11-16 19:53:00,
2013-11-16 14:01:00,66.0,56.0,-100.00,SSW,200,12.0,30.0,71,0.00,,,0.00,102.000000,,2013-11-16 20:01:00,
2013-11-16 14:42:00,66.0,56.0,-100.00,SSW,202,11.0,29.0,71,0.00,,,0.00,79.000000,,2013-11-16 20:42:00,
2013-11-16 14:53:00,66.0,56.0,-100.00,SSW,202,11.0,29.0,71,0.00,,,0.00,79.000000,,2013-11-16 20:53:00,
2013-11-16 15:02:00,66.0,56.0,-100.00,SSW,202,11.0,29.0,71,0.00,,,0.00,79.000000,,2013-11-16 21:02:00,
2013-11-16 15:44:00,68.0,56.0,-100.00,SSW,195,12.0,24.0,65,0.00,,,0.00,139.000000,,2013-11-16 21:44:00,
2013-11-16 15:54:00,68.0,56.0,-100.00,SSW,195,12.0,24.0,65,0.00,,,0.00,139.000000,,2013-11-16 21:54:00,
2013-11-16 16:04:00,68.0,56.0,-100.00,SSW,195,12.0,24.0,65,0.00,,,0.00,139.000000,,2013-11-16 22:04:00,
2013-11-16 16:42:00,67.0,55.0,-100.00,SSW,206,12.0,27.0,65,0.00,,,-99.99,117.000000,,2013-11-16 22:42:00,
2013-11-16 16:53:00,67.0,55.0,-100.00,SSW,206,12.0,27.0,65,0.00,,,-99.99,117.000000,,2013-11-16 22:53:00,
2013-11-16 17:03:00,67.0,55.0,-100.00,SSW,206,12.0,27.0,65,0.00,,,-99.99,117.000000,,2013-11-16 23:03:00,
2013-11-16 17:43:00,64.0,55.0,-100.00,SSW,198,9.0,19.0,72,0.00,,,0.00,13.000000,,2013-11-16 23:43:00,
2013-11-16 17:53:00,64.0,55.0,-100.00,SSW,198,9.0,19.0,72,0.00,,,0.00,13.000000,,2013-11-16 23:53:00,
2013-11-16 18:02:00,64.0,55.0,-100.00,SSW,198,9.0,19.0,72,0.00,,,0.00,13.000000,,2013-11-17 00:02:00,
2013-11-16 18:42:00,63.0,56.0,-100.00,SSW,198,8.0,17.0,78,0.00,,,0.00,0.000000,,2013-11-17 00:42:00,
2013-11-16 18:52:00,63.0,56.0,-100.00,SSW,198,8.0,17.0,78,0.00,,,0.00,0.000000,,2013-11-17 00:52:00,
2013-11-16 19:01:00,63.0,56.0,-100.00,SSW,198,8.0,17.0,78,0.00,,,0.00,0.000000,,2013-11-17 01:01:00,
2013-11-16 19:42:00,62.0,56.0,-100.00,SSW,202,8.0,18.0,81,0.00,,,0.00,0.000000,,2013-11-17 01:42:00,
2013-11-16 19:52:00,62.0,56.0,-100.00,SSW,202,8.0,18.0,81,0.00,,,0.00,0.000000,,2013-11-17 01:52:00,
2013-11-16 20:01:00,62.0,56.0,-100.00,SSW,202,8.0,18.0,81,0.00,,,0.00,0.000000,,2013-11-17 02:01:00,
2013-11-16 20:42:00,61.0,57.0,-100.00,SSW,199,6.0,14.0,87,0.00,,,0.00,0.000000,,2013-11-17 02:42:00,
2013-11-16 20:52:00,61.0,57.0,-100.00,SSW,199,6.0,14.0,87,0.00,,,0.00,0.000000,,2013-11-17 02:52:00,
2013-11-16 21:02:00,61.0,57.0,-100.00,SSW,199,6.0,14.0,87,0.00,,,0.00,0.000000,,2013-11-17 03:02:00,
2013-11-16 21:44:00,60.0,58.0,-100.00,SW,219,4.0,10.0,93,0.00,,,0.00,0.000000,,2013-11-17 03:44:00,
2013-11-16 21:56:00,60.0,58.0,-100.00,SW,219,4.0,10.0,93,0.00,,,0.00,0.000000,,2013-11-17 03:56:00,
2013-11-16 22:03:00,-999.0,-99.9,-100.00,SW,219,4.0,10.0,-999,-99.99,,,-99.99,0.000000,,2013-11-17 04:03:00,
2013-11-16 22:43:00,61.0,57.0,-100.00,SW,223,8.0,13.0,88,0.00,,,0.00,0.000000,,2013-11-17 04:43:00,
2013-11-16 22:53:00,61.0,57.0,-100.00,SW,223,8.0,13.0,88,0.00,,,0.00,0.000000,,2013-11-17 04:53:00,
2013-11-16 23:03:00,61.0,57.0,-100.00,SW,223,8.0,13.0,88,0.00,,,0.00,0.000000,,2013-11-17 05:03:00,
2013-11-16 23:44:00,58.0,58.0,-100.00,South,180,5.0,17.0,100,0.02,,,0.02,0.000000,,2013-11-17 05:44:00,
2013-11-16 23:53:00,58.0,58.0,-100.00,South,180,5.0,17.0,100,0.02,,,0.02,0.000000,,2013-11-17 05:53:00,